anonymous
  • anonymous
To which aerodrome is the following TAF most applicable? TAF 230500Z 2306/2412 29014KT 6000 SCT030 BKN100 TEMPO 2311/2313 25020G38KT 2500 + TSRA SCT008 BKN025CB BECMG 2313/2315 280 12KT 9999 SCT025 TEMPO 2315/2317 5000 SHRA BKN020 BECMG 2317/2319 27008KT 9999 SCT030=
OpenStudy Feedback
  • Stacey Warren - Expert brainly.com
Hey! We 've verified this expert answer for you, click below to unlock the details :)
SOLVED
At vero eos et accusamus et iusto odio dignissimos ducimus qui blanditiis praesentium voluptatum deleniti atque corrupti quos dolores et quas molestias excepturi sint occaecati cupiditate non provident, similique sunt in culpa qui officia deserunt mollitia animi, id est laborum et dolorum fuga. Et harum quidem rerum facilis est et expedita distinctio. Nam libero tempore, cum soluta nobis est eligendi optio cumque nihil impedit quo minus id quod maxime placeat facere possimus, omnis voluptas assumenda est, omnis dolor repellendus. Itaque earum rerum hic tenetur a sapiente delectus, ut aut reiciendis voluptatibus maiores alias consequatur aut perferendis doloribus asperiores repellat.
schrodinger
  • schrodinger
I got my questions answered at brainly.com in under 10 minutes. Go to brainly.com now for free help!
KingGeorge
  • KingGeorge
I don't think this question belongs in the feedback area.
anonymous
  • anonymous
ok

Looking for something else?

Not the answer you are looking for? Search for more explanations.